Time,TemperatureF,DewpointF,PressureIn,WindDirection,WindDirectionDegrees,WindSpeedMPH,WindSpeedGustMPH,Humidity,HourlyPrecipIn,Conditions,Clouds,dailyrainin,SolarRadiationWatts/m^2,SoftwareType,DateUTC
2013-04-05 00:00:00,48.2,43.9,30.21,WNW,302,0.0,4.0,85,0.00,,---,0.00,0.00,VWS V14.01,2013-04-05 05:00:00,
2013-04-05 00:01:00,48.1,43.8,30.21,NW,321,0.0,3.0,85,0.00,,---,0.00,0.00,VWS V14.01,2013-04-05 05:01:00,
2013-04-05 00:02:00,48.2,43.9,30.21,NW,321,1.0,3.0,85,0.00,,---,0.00,0.00,VWS V14.01,2013-04-05 05:02:00,
2013-04-05 00:04:00,48.1,43.8,30.21,NW,321,0.0,3.0,85,0.00,,---,0.00,0.00,VWS V14.01,2013-04-05 05:04:00,
2013-04-05 00:06:00,48.1,43.8,30.21,NW,321,0.0,3.0,85,0.00,,---,0.00,0.00,VWS V14.01,2013-04-05 05:06:00,
2013-04-05 00:07:00,48.1,43.8,30.21,NW,321,0.0,3.0,85,0.00,,---,0.00,0.00,VWS V14.01,2013-04-05 05:07:00,
2013-04-05 00:12:00,48.1,43.8,30.21,NW,321,0.0,3.0,85,0.00,,---,0.00,0.00,VWS V14.01,2013-04-05 05:12:00,
2013-04-05 00:13:00,48.2,43.9,30.21,NW,321,0.0,3.0,85,0.00,,---,0.00,0.00,VWS V14.01,2013-04-05 05:13:00,
2013-04-05 00:14:00,48.1,43.8,30.21,NW,321,0.0,3.0,85,0.00,,---,0.00,0.00,VWS V14.01,2013-04-05 05:14:00,
2013-04-05 00:18:00,48.1,43.8,30.21,West,277,2.0,5.0,85,0.00,,---,0.00,0.00,VWS V14.01,2013-04-05 05:18:00,
2013-04-05 00:19:00,48.1,43.8,30.21,West,277,0.0,5.0,85,0.00,,---,0.00,0.00,VWS V14.01,2013-04-05 05:19:00,
2013-04-05 00:20:00,48.1,43.8,30.21,West,277,0.0,5.0,85,0.00,,---,0.00,0.00,VWS V14.01,2013-04-05 05:20:00,
2013-04-05 00:22:00,48.1,44.1,30.21,West,277,0.0,5.0,86,0.00,,---,0.00,0.00,VWS V14.01,2013-04-05 05:22:00,
2013-04-05 00:23:00,48.1,44.1,30.21,West,277,0.0,5.0,86,0.00,,---,0.00,0.00,VWS V14.01,2013-04-05 05:23:00,
2013-04-05 00:25:00,48.1,44.1,30.21,West,277,0.0,5.0,86,0.00,,---,0.00,0.00,VWS V14.01,2013-04-05 05:25:00,
2013-04-05 00:27:00,48.1,44.1,30.21,WNW,285,0.0,5.0,86,0.00,,---,0.00,0.00,VWS V14.01,2013-04-05 05:27:00,
2013-04-05 00:29:00,48.1,44.1,30.21,WNW,285,0.0,5.0,86,0.00,,---,0.00,0.00,VWS V14.01,2013-04-05 05:29:00,
2013-04-05 00:30:00,48.1,44.1,30.21,WNW,285,0.0,5.0,86,0.00,,---,0.00,0.00,VWS V14.01,2013-04-05 05:30:00,
2013-04-05 00:31:00,48.1,44.1,30.21,WNW,285,2.0,2.0,86,0.00,,---,0.00,0.00,VWS V14.01,2013-04-05 05:31:00,
2013-04-05 00:32:00,48.1,44.1,30.21,WNW,285,0.0,2.0,86,0.00,,---,0.00,0.00,VWS V14.01,2013-04-05 05:32:00,
2013-04-05 00:35:00,48.0,44.0,30.21,WNW,288,0.0,2.0,86,0.00,,---,0.00,0.00,VWS V14.01,2013-04-05 05:35:00,
2013-04-05 00:37:00,48.0,44.0,30.21,WNW,288,0.0,3.0,86,0.00,,---,0.00,0.00,VWS V14.01,2013-04-05 05:37:00,
2013-04-05 00:38:00,48.0,44.0,30.21,WNW,288,0.0,3.0,86,0.00,,---,0.00,0.00,VWS V14.01,2013-04-05 05:38:00,
2013-04-05 00:43:00,47.9,43.9,30.21,WNW,288,0.0,3.0,86,0.00,,---,0.00,0.00,VWS V14.01,2013-04-05 05:43:00,
2013-04-05 00:44:00,47.9,43.9,30.21,WNW,288,0.0,3.0,86,0.00,,---,0.00,0.00,VWS V14.01,2013-04-05 05:44:00,
2013-04-05 00:45:00,47.9,43.9,30.21,WNW,288,2.0,3.0,86,0.00,,---,0.00,0.00,VWS V14.01,2013-04-05 05:45:00,
2013-04-05 00:49:00,47.9,43.9,30.21,WNW,300,0.0,3.0,86,0.00,,---,0.00,0.00,VWS V14.01,2013-04-05 05:49:00,
2013-04-05 00:50:00,47.9,43.9,30.21,WNW,300,0.0,3.0,86,0.00,,---,0.00,0.00,VWS V14.01,2013-04-05 05:50:00,
2013-04-05 00:52:00,47.9,43.9,30.21,WNW,300,0.0,3.0,86,0.00,,---,0.00,0.00,VWS V14.01,2013-04-05 05:52:00,
2013-04-05 00:54:00,47.9,44.2,30.21,WNW,301,0.0,3.0,87,0.00,,---,0.00,0.00,VWS V14.01,2013-04-05 05:54:00,
2013-04-05 00:56:00,47.9,44.2,30.22,WNW,303,0.0,3.0,87,0.00,,---,0.00,0.00,VWS V14.01,2013-04-05 05:56:00,
2013-04-05 00:57:00,47.9,44.2,30.22,WNW,303,0.0,3.0,87,0.00,,---,0.00,0.00,VWS V14.01,2013-04-05 05:57:00,
2013-04-05 01:00:00,47.9,44.2,30.22,WNW,303,0.0,0.0,87,0.00,,---,0.00,0.00,VWS V14.01,2013-04-05 06:00:00,
2013-04-05 01:01:00,47.9,44.2,30.22,WNW,303,0.0,0.0,87,0.00,,---,0.00,0.00,VWS V14.01,2013-04-05 06:01:00,
2013-04-05 01:02:00,47.9,44.2,30.22,WNW,303,0.0,0.0,87,0.00,,---,0.00,0.00,VWS V14.01,2013-04-05 06:02:00,
2013-04-05 01:04:00,47.9,44.2,30.22,WNW,303,0.0,0.0,87,0.00,,---,0.00,0.00,VWS V14.01,2013-04-05 06:04:00,
2013-04-05 01:07:00,47.9,44.2,30.22,WNW,303,0.0,2.0,87,0.00,,---,0.00,0.00,VWS V14.01,2013-04-05 06:07:00,
2013-04-05 01:08:00,47.9,44.2,30.22,WNW,303,0.0,2.0,87,0.00,,---,0.00,0.00,VWS V14.01,2013-04-05 06:08:00,
2013-04-05 01:10:00,47.9,44.2,30.22,WNW,303,0.0,2.0,87,0.00,,---,0.00,0.00,VWS V14.01,2013-04-05 06:10:00,
2013-04-05 01:11:00,47.9,44.2,30.22,WNW,303,0.0,2.0,87,0.00,,---,0.00,0.00,VWS V14.01,2013-04-05 06:11:00,
2013-04-05 01:13:00,47.9,44.2,30.22,WNW,303,0.0,2.0,87,0.00,,---,0.00,0.00,VWS V14.01,2013-04-05 06:13:00,
2013-04-05 01:16:00,47.8,44.1,30.22,WNW,303,0.0,2.0,87,0.00,,---,0.00,0.00,VWS V14.01,2013-04-05 06:16:00,
2013-04-05 01:19:00,47.9,44.2,30.22,WNW,303,0.0,2.0,87,0.00,,---,0.00,0.00,VWS V14.01,2013-04-05 06:19:00,
2013-04-05 01:21:00,47.8,44.4,30.22,WNW,303,1.0,2.0,88,0.00,,---,0.00,0.00,VWS V14.01,2013-04-05 06:21:00,
2013-04-05 01:22:00,47.8,44.4,30.22,WNW,303,0.0,2.0,88,0.00,,---,0.00,0.00,VWS V14.01,2013-04-05 06:22:00,
2013-04-05 01:27:00,47.8,44.4,30.22,WNW,303,0.0,2.0,88,0.00,,---,0.00,0.00,VWS V14.01,2013-04-05 06:27:00,
2013-04-05 01:29:00,47.8,44.4,30.22,WNW,303,0.0,2.0,88,0.00,,---,0.00,0.00,VWS V14.01,2013-04-05 06:29:00,
2013-04-05 01:30:00,47.7,44.3,30.22,WNW,303,0.0,2.0,88,0.00,,---,0.00,0.00,VWS V14.01,2013-04-05 06:30:00,
2013-04-05 01:32:00,47.7,44.3,30.22,WNW,303,0.0,2.0,88,0.00,,---,0.00,0.00,VWS V14.01,2013-04-05 06:32:00,
2013-04-05 01:33:00,47.7,44.3,30.21,WNW,303,0.0,2.0,88,0.00,,---,0.00,0.00,VWS V14.01,2013-04-05 06:33:00,
2013-04-05 01:34:00,47.7,44.3,30.22,WNW,303,0.0,2.0,88,0.00,,---,0.00,0.00,VWS V14.01,2013-04-05 06:34:00,
2013-04-05 01:39:00,47.7,44.3,30.21,WNW,303,0.0,2.0,88,0.00,,---,0.00,0.00,VWS V14.01,2013-04-05 06:39:00,
2013-04-05 01:42:00,47.7,44.3,30.22,WNW,303,0.0,2.0,88,0.00,,---,0.00,0.00,VWS V14.01,2013-04-05 06:42:00,
2013-04-05 01:43:00,47.7,44.3,30.22,WNW,303,0.0,2.0,88,0.00,,---,0.00,0.00,VWS V14.01,2013-04-05 06:43:00,
2013-04-05 01:44:00,47.7,44.3,30.22,WNW,303,0.0,2.0,88,0.00,,---,0.00,0.00,VWS V14.01,2013-04-05 06:44:00,
2013-04-05 01:46:00,47.6,44.2,30.22,WNW,303,0.0,2.0,88,0.00,,---,0.00,0.00,VWS V14.01,2013-04-05 06:46:00,
2013-04-05 01:47:00,47.7,44.3,30.22,WNW,303,0.0,2.0,88,0.00,,---,0.00,0.00,VWS V14.01,2013-04-05 06:47:00,
2013-04-05 01:51:00,47.7,44.6,30.22,WNW,303,1.0,2.0,89,0.00,,---,0.00,0.00,VWS V14.01,2013-04-05 06:51:00,
2013-04-05 01:52:00,47.7,44.6,30.22,WNW,303,0.0,2.0,89,0.00,,---,0.00,0.00,VWS V14.01,2013-04-05 06:52:00,
2013-04-05 01:53:00,47.6,44.5,30.22,WNW,303,0.0,2.0,89,0.00,,---,0.00,0.00,VWS V14.01,2013-04-05 06:53:00,
2013-04-05 01:56:00,47.6,44.5,30.22,WNW,303,0.0,2.0,89,0.00,,---,0.00,0.00,VWS V14.01,2013-04-05 06:56:00,
2013-04-05 01:57:00,47.6,44.5,30.22,WNW,303,0.0,2.0,89,0.00,,---,0.00,0.00,VWS V14.01,2013-04-05 06:57:00,
2013-04-05 01:58:00,47.6,44.5,30.21,WNW,303,0.0,2.0,89,0.00,,---,0.00,0.00,VWS V14.01,2013-04-05 06:58:00,
2013-04-05 02:00:00,47.6,44.5,30.22,WNW,303,0.0,2.0,89,0.00,,---,0.00,0.00,VWS V14.01,2013-04-05 07:00:00,
2013-04-05 02:02:00,47.6,44.5,30.22,WNW,303,0.0,0.0,89,0.00,,---,0.00,0.00,VWS V14.01,2013-04-05 07:02:00,
2013-04-05 02:03:00,47.6,44.5,30.22,WNW,303,0.0,0.0,89,0.00,,---,0.00,0.00,VWS V14.01,2013-04-05 07:03:00,
2013-04-05 02:04:00,47.6,44.5,30.22,WNW,303,0.0,0.0,89,0.00,,---,0.00,0.00,VWS V14.01,2013-04-05 07:04:00,
2013-04-05 02:07:00,47.6,44.5,30.22,WNW,303,0.0,0.0,89,0.00,,---,0.00,0.00,VWS V14.01,2013-04-05 07:07:00,
2013-04-05 02:10:00,47.6,44.5,30.22,WNW,303,0.0,1.0,89,0.00,,---,0.00,0.00,VWS V14.01,2013-04-05 07:10:00,
2013-04-05 02:11:00,47.6,44.5,30.22,West,281,1.0,2.0,89,0.00,,---,0.00,0.00,VWS V14.01,2013-04-05 07:11:00,
2013-04-05 02:12:00,47.5,44.4,30.22,West,281,0.0,2.0,89,0.00,,---,0.00,0.00,VWS V14.01,2013-04-05 07:12:00,
2013-04-05 02:16:00,47.5,44.4,30.22,West,281,0.0,2.0,89,0.00,,---,0.00,0.00,VWS V14.01,2013-04-05 07:16:00,
2013-04-05 02:17:00,47.5,44.4,30.22,West,281,0.0,2.0,89,0.00,,---,0.00,0.00,VWS V14.01,2013-04-05 07:17:00,
2013-04-05 02:19:00,47.5,44.4,30.22,WNW,284,0.0,2.0,89,0.00,,---,0.00,0.00,VWS V14.01,2013-04-05 07:19:00,
2013-04-05 02:21:00,47.5,44.4,30.21,WNW,284,0.0,2.0,89,0.00,,---,0.00,0.00,VWS V14.01,2013-04-05 07:21:00,
2013-04-05 02:22:00,47.5,44.4,30.21,WNW,284,0.0,2.0,89,0.00,,---,0.00,0.00,VWS V14.01,2013-04-05 07:22:00,
2013-04-05 02:23:00,47.5,44.4,30.21,WNW,284,0.0,2.0,89,0.00,,---,0.00,0.00,VWS V14.01,2013-04-05 07:23:00,
2013-04-05 02:24:00,47.5,44.4,30.21,WNW,284,0.0,3.0,89,0.00,,---,0.00,0.00,VWS V14.01,2013-04-05 07:24:00,
2013-04-05 02:26:00,47.5,44.4,30.21,WNW,291,2.0,4.0,89,0.00,,---,0.00,0.00,VWS V14.01,2013-04-05 07:26:00,
2013-04-05 02:28:00,47.5,44.4,30.21,WNW,291,0.0,4.0,89,0.00,,---,0.00,0.00,VWS V14.01,2013-04-05 07:28:00,
2013-04-05 02:30:00,47.5,44.4,30.21,WNW,291,0.0,0.0,89,0.00,,---,0.00,0.00,VWS V14.01,2013-04-05 07:30:00,
2013-04-05 02:31:00,47.5,44.4,30.21,WNW,300,2.0,3.0,89,0.00,,---,0.00,0.00,VWS V14.01,2013-04-05 07:31:00,
2013-04-05 02:32:00,47.5,44.4,30.21,NW,306,0.0,3.0,89,0.00,,---,0.00,0.00,VWS V14.01,2013-04-05 07:32:00,
2013-04-05 02:33:00,47.4,44.3,30.21,NW,306,0.0,3.0,89,0.00,,---,0.00,0.00,VWS V14.01,2013-04-05 07:33:00,
2013-04-05 02:35:00,47.4,44.3,30.21,NW,306,0.0,3.0,89,0.00,,---,0.00,0.00,VWS V14.01,2013-04-05 07:35:00,
2013-04-05 02:37:00,47.4,44.3,30.21,NW,306,0.0,3.0,89,0.00,,---,0.00,0.00,VWS V14.01,2013-04-05 07:37:00,
2013-04-05 02:38:00,47.4,44.3,30.21,WNW,286,0.0,3.0,89,0.00,,---,0.00,0.00,VWS V14.01,2013-04-05 07:38:00,
2013-04-05 02:39:00,47.4,44.3,30.21,WNW,286,0.0,3.0,89,0.00,,---,0.00,0.00,VWS V14.01,2013-04-05 07:39:00,
2013-04-05 02:40:00,47.4,44.3,30.21,WNW,286,0.0,3.0,89,0.00,,---,0.00,0.00,VWS V14.01,2013-04-05 07:40:00,
2013-04-05 02:43:00,47.4,44.3,30.21,WNW,286,0.0,3.0,89,0.00,,---,0.00,0.00,VWS V14.01,2013-04-05 07:43:00,
2013-04-05 02:44:00,47.4,44.3,30.21,WNW,286,0.0,3.0,89,0.00,,---,0.00,0.00,VWS V14.01,2013-04-05 07:44:00,
2013-04-05 02:45:00,47.4,44.3,30.21,WNW,286,0.0,3.0,89,0.00,,---,0.00,0.00,VWS V14.01,2013-04-05 07:45:00,
2013-04-05 02:46:00,47.4,44.3,30.21,WNW,294,1.0,3.0,89,0.00,,---,0.00,0.00,VWS V14.01,2013-04-05 07:46:00,
2013-04-05 02:49:00,47.4,44.3,30.21,WNW,294,0.0,3.0,89,0.00,,---,0.00,0.00,VWS V14.01,2013-04-05 07:49:00,
2013-04-05 02:52:00,47.3,44.2,30.21,WNW,294,0.0,3.0,89,0.00,,---,0.00,0.00,VWS V14.01,2013-04-05 07:52:00,
2013-04-05 02:54:00,47.3,44.2,30.21,WNW,294,0.0,3.0,89,0.00,,---,0.00,0.00,VWS V14.01,2013-04-05 07:54:00,
2013-04-05 02:57:00,47.3,44.2,30.21,WNW,294,0.0,3.0,89,0.00,,---,0.00,0.00,VWS V14.01,2013-04-05 07:57:00,
2013-04-05 02:58:00,47.2,44.1,30.20,WNW,294,0.0,3.0,89,0.00,,---,0.00,0.00,VWS V14.01,2013-04-05 07:58:00,
2013-04-05 02:59:00,47.2,44.1,30.21,WNW,294,0.0,3.0,89,0.00,,---,0.00,0.00,VWS V14.01,2013-04-05 07:59:00,
2013-04-05 03:00:00,47.2,44.1,30.21,WNW,294,0.0,3.0,89,0.00,,---,0.00,0.00,VWS V14.01,2013-04-05 08:00:00,
2013-04-05 03:02:00,47.2,44.1,30.21,WNW,294,0.0,0.0,89,0.00,,---,0.00,0.00,VWS V14.01,2013-04-05 08:02:00,
2013-04-05 03:03:00,47.2,44.1,30.21,WNW,294,0.0,1.0,89,0.00,,---,0.00,0.00,VWS V14.01,2013-04-05 08:03:00,
2013-04-05 03:05:00,47.0,43.9,30.21,WNW,294,0.0,1.0,89,0.00,,---,0.00,0.00,VWS V14.01,2013-04-05 08:05:00,
2013-04-05 03:07:00,47.0,43.9,30.21,WNW,294,0.0,1.0,89,0.00,,---,0.00,0.00,VWS V14.01,2013-04-05 08:07:00,
2013-04-05 03:08:00,46.9,43.8,30.21,WNW,294,0.0,1.0,89,0.00,,---,0.00,0.00,VWS V14.01,2013-04-05 08:08:00,
2013-04-05 03:09:00,46.9,43.8,30.21,WNW,294,0.0,1.0,89,0.00,,---,0.00,0.00,VWS V14.01,2013-04-05 08:09:00,
2013-04-05 03:12:00,46.8,43.7,30.21,WNW,294,0.0,1.0,89,0.00,,---,0.00,0.00,VWS V14.01,2013-04-05 08:12:00,
2013-04-05 03:13:00,46.7,43.6,30.21,WNW,294,0.0,1.0,89,0.00,,---,0.00,0.00,VWS V14.01,2013-04-05 08:13:00,
2013-04-05 03:14:00,46.7,43.6,30.21,WNW,294,0.0,1.0,89,0.00,,---,0.00,0.00,VWS V14.01,2013-04-05 08:14:00,
2013-04-05 03:18:00,46.5,43.4,30.21,WNW,294,0.0,1.0,89,0.00,,---,0.00,0.00,VWS V14.01,2013-04-05 08:18:00,
2013-04-05 03:19:00,46.5,43.4,30.20,WNW,294,0.0,1.0,89,0.00,,---,0.00,0.00,VWS V14.01,2013-04-05 08:19:00,
2013-04-05 03:23:00,46.3,43.2,30.20,WNW,294,0.0,1.0,89,0.00,,---,0.00,0.00,VWS V14.01,2013-04-05 08:23:00,
2013-04-05 03:24:00,46.3,43.2,30.20,WNW,294,0.0,1.0,89,0.00,,---,0.00,0.00,VWS V14.01,2013-04-05 08:24:00,
2013-04-05 03:25:00,46.2,43.1,30.20,WNW,294,0.0,1.0,89,0.00,,---,0.00,0.00,VWS V14.01,2013-04-05 08:25:00,
2013-04-05 03:27:00,46.1,43.0,30.20,WNW,294,0.0,1.0,89,0.00,,---,0.00,0.00,VWS V14.01,2013-04-05 08:27:00,
2013-04-05 03:30:00,45.9,42.8,30.20,WNW,294,0.0,0.0,89,0.00,,---,0.00,0.00,VWS V14.01,2013-04-05 08:30:00,
2013-04-05 03:31:00,45.9,42.8,30.20,WNW,294,0.0,0.0,89,0.00,,---,0.00,0.00,VWS V14.01,2013-04-05 08:31:00,
2013-04-05 03:32:00,45.8,42.8,30.20,WNW,294,0.0,0.0,89,0.00,,---,0.00,0.00,VWS V14.01,2013-04-05 08:32:00,
2013-04-05 03:33:00,45.8,42.8,30.20,WNW,294,0.0,0.0,89,0.00,,---,0.00,0.00,VWS V14.01,2013-04-05 08:33:00,
2013-04-05 03:36:00,45.6,42.5,30.20,WNW,294,0.0,0.0,89,0.00,,---,0.00,0.00,VWS V14.01,2013-04-05 08:36:00,
2013-04-05 03:37:00,45.5,42.5,30.20,WNW,294,0.0,0.0,89,0.00,,---,0.00,0.00,VWS V14.01,2013-04-05 08:37:00,
2013-04-05 03:38:00,45.4,42.3,30.20,WNW,294,0.0,0.0,89,0.00,,---,0.00,0.00,VWS V14.01,2013-04-05 08:38:00,
2013-04-05 03:39:00,45.4,42.3,30.20,WNW,294,0.0,0.0,89,0.00,,---,0.00,0.00,VWS V14.01,2013-04-05 08:39:00,
2013-04-05 03:43:00,45.2,42.2,30.20,WNW,294,0.0,0.0,89,0.00,,---,0.00,0.00,VWS V14.01,2013-04-05 08:43:00,
2013-04-05 03:44:00,45.1,42.1,30.20,WNW,294,0.0,0.0,89,0.00,,---,0.00,0.00,VWS V14.01,2013-04-05 08:44:00,
2013-04-05 03:45:00,45.1,42.1,30.20,WNW,294,0.0,0.0,89,0.00,,---,0.00,0.00,VWS V14.01,2013-04-05 08:45:00,
2013-04-05 03:46:00,45.0,42.0,30.20,WNW,294,0.0,0.0,89,0.00,,---,0.00,0.00,VWS V14.01,2013-04-05 08:46:00,
2013-04-05 03:49:00,44.9,42.2,30.20,WNW,294,0.0,0.0,90,0.00,,---,0.00,0.00,VWS V14.01,2013-04-05 08:49:00,
2013-04-05 03:50:00,44.9,42.2,30.20,WNW,294,0.0,0.0,90,0.00,,---,0.00,0.00,VWS V14.01,2013-04-05 08:50:00,
2013-04-05 03:51:00,44.9,42.2,30.20,WNW,294,0.0,0.0,90,0.00,,---,0.00,0.00,VWS V14.01,2013-04-05 08:51:00,
2013-04-05 03:53:00,44.8,42.0,30.20,WNW,294,0.0,0.0,90,0.00,,---,0.00,0.00,VWS V14.01,2013-04-05 08:53:00,
2013-04-05 03:55:00,44.7,42.0,30.20,WNW,294,0.0,0.0,90,0.00,,---,0.00,0.00,VWS V14.01,2013-04-05 08:55:00,
2013-04-05 03:57:00,44.6,41.6,30.20,WNW,294,0.0,0.0,89,0.00,,---,0.00,0.00,VWS V14.01,2013-04-05 08:57:00,
2013-04-05 04:00:00,44.4,41.7,30.20,WNW,294,0.0,0.0,90,0.00,,---,0.00,0.00,VWS V14.01,2013-04-05 09:00:00,
2013-04-05 04:01:00,44.3,41.6,30.20,WNW,294,0.0,0.0,90,0.00,,---,0.00,0.00,VWS V14.01,2013-04-05 09:01:00,
2013-04-05 04:02:00,44.3,41.6,30.20,WNW,294,0.0,0.0,90,0.00,,---,0.00,0.00,VWS V14.01,2013-04-05 09:02:00,
2013-04-05 04:05:00,44.2,41.5,30.20,WNW,294,0.0,0.0,90,0.00,,---,0.00,0.00,VWS V14.01,2013-04-05 09:05:00,
2013-04-05 04:07:00,44.1,41.4,30.21,WNW,294,0.0,0.0,90,0.00,,---,0.00,0.00,VWS V14.01,2013-04-05 09:07:00,
2013-04-05 04:08:00,44.0,41.3,30.21,WNW,294,0.0,0.0,90,0.00,,---,0.00,0.00,VWS V14.01,2013-04-05 09:08:00,
2013-04-05 04:11:00,43.8,41.1,30.21,WNW,294,0.0,0.0,90,0.00,,---,0.00,0.00,VWS V14.01,2013-04-05 09:11:00,
2013-04-05 04:13:00,43.7,41.0,30.21,WNW,294,0.0,0.0,90,0.00,,---,0.00,0.00,VWS V14.01,2013-04-05 09:13:00,
2013-04-05 04:14:00,43.7,41.0,30.20,WNW,294,0.0,0.0,90,0.00,,---,0.00,0.00,VWS V14.01,2013-04-05 09:14:00,
2013-04-05 04:15:00,43.7,41.0,30.21,WNW,294,0.0,0.0,90,0.00,,---,0.00,0.00,VWS V14.01,2013-04-05 09:15:00,
2013-04-05 04:18:00,43.5,40.8,30.20,WNW,294,0.0,0.0,90,0.00,,---,0.00,0.00,VWS V14.01,2013-04-05 09:18:00,
2013-04-05 04:19:00,43.5,40.8,30.20,WNW,294,0.0,0.0,90,0.00,,---,0.00,0.00,VWS V14.01,2013-04-05 09:19:00,
2013-04-05 04:20:00,43.4,40.7,30.20,WNW,294,0.0,0.0,90,0.00,,---,0.00,0.00,VWS V14.01,2013-04-05 09:20:00,
2013-04-05 04:24:00,43.3,40.6,30.20,WNW,294,0.0,0.0,90,0.00,,---,0.00,0.00,VWS V14.01,2013-04-05 09:24:00,
2013-04-05 04:25:00,43.3,40.6,30.20,WNW,294,0.0,0.0,90,0.00,,---,0.00,0.00,VWS V14.01,2013-04-05 09:25:00,
2013-04-05 04:26:00,43.3,40.6,30.20,WNW,294,0.0,0.0,90,0.00,,---,0.00,0.00,VWS V14.01,2013-04-05 09:26:00,
2013-04-05 04:29:00,43.1,40.4,30.20,WNW,294,0.0,0.0,90,0.00,,---,0.00,0.00,VWS V14.01,2013-04-05 09:29:00,
2013-04-05 04:30:00,43.1,40.4,30.20,WNW,294,0.0,0.0,90,0.00,,---,0.00,0.00,VWS V14.01,2013-04-05 09:30:00,
2013-04-05 04:31:00,43.1,40.4,30.20,WNW,294,0.0,0.0,90,0.00,,---,0.00,0.00,VWS V14.01,2013-04-05 09:31:00,
2013-04-05 04:32:00,43.1,40.4,30.20,WNW,294,0.0,0.0,90,0.00,,---,0.00,0.00,VWS V14.01,2013-04-05 09:32:00,
2013-04-05 04:36:00,42.8,40.1,30.21,WNW,294,0.0,0.0,90,0.00,,---,0.00,0.00,VWS V14.01,2013-04-05 09:36:00,
2013-04-05 04:37:00,42.8,40.1,30.21,WNW,294,0.0,0.0,90,0.00,,---,0.00,0.00,VWS V14.01,2013-04-05 09:37:00,
2013-04-05 04:39:00,42.7,40.0,30.21,WNW,294,0.0,0.0,90,0.00,,---,0.00,0.00,VWS V14.01,2013-04-05 09:39:00,
2013-04-05 04:42:00,42.5,39.8,30.21,WNW,294,0.0,0.0,90,0.00,,---,0.00,0.00,VWS V14.01,2013-04-05 09:42:00,
2013-04-05 04:44:00,42.4,40.0,30.21,WNW,294,0.0,0.0,91,0.00,,---,0.00,0.00,VWS V14.01,2013-04-05 09:44:00,
2013-04-05 04:47:00,42.3,39.9,30.21,WNW,294,0.0,0.0,91,0.00,,---,0.00,0.00,VWS V14.01,2013-04-05 09:47:00,
2013-04-05 04:49:00,42.2,39.8,30.21,WNW,294,0.0,0.0,91,0.00,,---,0.00,0.00,VWS V14.01,2013-04-05 09:49:00,
2013-04-05 04:52:00,42.1,39.7,30.22,WNW,294,0.0,0.0,91,0.00,,---,0.00,0.00,VWS V14.01,2013-04-05 09:52:00,
2013-04-05 04:53:00,42.1,39.7,30.22,WNW,294,0.0,0.0,91,0.00,,---,0.00,0.00,VWS V14.01,2013-04-05 09:53:00,
2013-04-05 04:55:00,42.0,39.6,30.22,WNW,294,0.0,0.0,91,0.00,,---,0.00,0.00,VWS V14.01,2013-04-05 09:55:00,
2013-04-05 04:57:00,41.9,39.5,30.22,WNW,294,0.0,0.0,91,0.00,,---,0.00,0.00,VWS V14.01,2013-04-05 09:57:00,
2013-04-05 04:59:00,41.9,39.5,30.22,WNW,294,0.0,0.0,91,0.00,,---,0.00,0.00,VWS V14.01,2013-04-05 09:59:00,
2013-04-05 05:00:00,41.8,39.4,30.22,WNW,294,0.0,0.0,91,0.00,,---,0.00,0.00,VWS V14.01,2013-04-05 10:00:00,
2013-04-05 05:02:00,41.8,39.4,30.22,WNW,294,0.0,1.0,91,0.00,,---,0.00,0.00,VWS V14.01,2013-04-05 10:02:00,
2013-04-05 05:03:00,41.8,39.4,30.22,WNW,294,0.0,1.0,91,0.00,,---,0.00,0.00,VWS V14.01,2013-04-05 10:03:00,
2013-04-05 05:05:00,41.7,39.3,30.22,WNW,294,0.0,1.0,91,0.00,,---,0.00,0.00,VWS V14.01,2013-04-05 10:05:00,
2013-04-05 05:06:00,41.7,39.3,30.22,WNW,294,0.0,1.0,91,0.00,,---,0.00,0.00,VWS V14.01,2013-04-05 10:06:00,
2013-04-05 05:08:00,41.6,39.2,30.22,WNW,294,0.0,1.0,91,0.00,,---,0.00,0.00,VWS V14.01,2013-04-05 10:08:00,
2013-04-05 05:12:00,41.5,39.1,30.22,WNW,294,0.0,1.0,91,0.00,,---,0.00,0.00,VWS V14.01,2013-04-05 10:12:00,
2013-04-05 05:13:00,41.5,39.1,30.22,WNW,294,0.0,1.0,91,0.00,,---,0.00,0.00,VWS V14.01,2013-04-05 10:13:00,
2013-04-05 05:15:00,41.5,39.1,30.22,WNW,294,0.0,1.0,91,0.00,,---,0.00,0.00,VWS V14.01,2013-04-05 10:15:00,
2013-04-05 05:18:00,41.4,39.0,30.22,WNW,294,0.0,1.0,91,0.00,,---,0.00,0.00,VWS V14.01,2013-04-05 10:18:00,
2013-04-05 05:19:00,41.4,39.0,30.22,WNW,294,0.0,1.0,91,0.00,,---,0.00,0.00,VWS V14.01,2013-04-05 10:19:00,
2013-04-05 05:22:00,41.4,39.2,30.22,WNW,294,0.0,1.0,92,0.00,,---,0.00,0.00,VWS V14.01,2013-04-05 10:22:00,
2013-04-05 05:23:00,41.3,39.2,30.22,NW,319,0.0,3.0,92,0.00,,---,0.00,0.00,VWS V14.01,2013-04-05 10:23:00,
2013-04-05 05:24:00,41.3,39.2,30.22,NW,319,0.0,3.0,92,0.01,,---,0.01,0.00,VWS V14.01,2013-04-05 10:24:00,
2013-04-05 05:25:00,41.3,39.2,30.22,NW,319,0.0,3.0,92,0.01,,---,0.01,0.00,VWS V14.01,2013-04-05 10:25:00,
2013-04-05 05:28:00,41.3,39.2,30.22,NW,319,0.0,3.0,92,0.01,,---,0.01,0.00,VWS V14.01,2013-04-05 10:28:00,
2013-04-05 05:30:00,41.3,39.2,30.22,NW,319,0.0,0.0,92,0.01,,---,0.01,0.00,VWS V14.01,2013-04-05 10:30:00,
2013-04-05 05:31:00,41.2,39.1,30.22,NW,319,0.0,0.0,92,0.01,,---,0.01,0.00,VWS V14.01,2013-04-05 10:31:00,
2013-04-05 05:32:00,41.2,39.1,30.22,NW,319,0.0,0.0,92,0.01,,---,0.01,0.00,VWS V14.01,2013-04-05 10:32:00,
2013-04-05 05:33:00,41.2,39.1,30.22,NW,319,0.0,0.0,92,0.01,,---,0.01,0.00,VWS V14.01,2013-04-05 10:33:00,
2013-04-05 05:35:00,41.2,39.1,30.22,NW,319,0.0,0.0,92,0.01,,---,0.01,0.00,VWS V14.01,2013-04-05 10:35:00,
2013-04-05 05:37:00,41.2,39.1,30.22,NW,319,0.0,0.0,92,0.01,,---,0.01,0.00,VWS V14.01,2013-04-05 10:37:00,
2013-04-05 05:38:00,41.2,39.1,30.23,NW,319,0.0,0.0,92,0.01,,---,0.01,0.00,VWS V14.01,2013-04-05 10:38:00,
2013-04-05 05:41:00,41.1,39.0,30.23,NW,319,0.0,0.0,92,0.01,,---,0.01,0.00,VWS V14.01,2013-04-05 10:41:00,
2013-04-05 05:43:00,41.1,39.0,30.23,NW,319,0.0,0.0,92,0.01,,---,0.01,0.00,VWS V14.01,2013-04-05 10:43:00,
2013-04-05 05:45:00,41.1,39.0,30.23,NW,319,0.0,0.0,92,0.01,,---,0.01,0.00,VWS V14.01,2013-04-05 10:45:00,
2013-04-05 05:46:00,41.0,38.9,30.23,NW,319,0.0,0.0,92,0.01,,---,0.01,0.00,VWS V14.01,2013-04-05 10:46:00,
2013-04-05 05:47:00,41.1,39.0,30.23,NW,319,0.0,0.0,92,0.01,,---,0.01,0.00,VWS V14.01,2013-04-05 10:47:00,
2013-04-05 05:49:00,41.0,38.9,30.23,NW,319,0.0,0.0,92,0.01,,---,0.01,0.00,VWS V14.01,2013-04-05 10:49:00,
2013-04-05 05:51:00,41.0,38.9,30.23,NW,319,0.0,0.0,92,0.01,,---,0.01,0.00,VWS V14.01,2013-04-05 10:51:00,
2013-04-05 05:52:00,41.0,38.9,30.23,NW,319,0.0,1.0,92,0.01,,---,0.01,0.00,VWS V14.01,2013-04-05 10:52:00,
2013-04-05 05:54:00,41.1,39.0,30.23,NW,319,0.0,1.0,92,0.01,,---,0.01,0.00,VWS V14.01,2013-04-05 10:54:00,
2013-04-05 05:55:00,41.1,39.0,30.23,NW,319,0.0,1.0,92,0.01,,---,0.01,0.00,VWS V14.01,2013-04-05 10:55:00,
2013-04-05 05:57:00,41.1,39.0,30.23,NW,319,0.0,1.0,92,0.01,,---,0.01,0.00,VWS V14.01,2013-04-05 10:57:00,
2013-04-05 05:59:00,41.1,39.0,30.23,NW,319,0.0,1.0,92,0.01,,---,0.01,0.00,VWS V14.01,2013-04-05 10:59:00,
2013-04-05 06:00:00,41.1,39.0,30.23,NW,319,0.0,1.0,92,0.01,,---,0.01,0.00,VWS V14.01,2013-04-05 11:00:00,
2013-04-05 06:02:00,41.1,39.2,30.23,NW,319,0.0,0.0,93,0.01,,---,0.01,0.00,VWS V14.01,2013-04-05 11:02:00,
2013-04-05 06:03:00,41.1,39.2,30.23,NW,319,0.0,0.0,93,0.01,,---,0.01,0.00,VWS V14.01,2013-04-05 11:03:00,
2013-04-05 06:05:00,41.1,39.2,30.23,NW,319,0.0,0.0,93,0.01,,---,0.01,0.00,VWS V14.01,2013-04-05 11:05:00,
2013-04-05 06:07:00,41.2,39.3,30.23,NW,319,0.0,2.0,93,0.01,,---,0.01,0.00,VWS V14.01,2013-04-05 11:07:00,
2013-04-05 06:08:00,41.2,39.3,30.23,NW,319,0.0,2.0,93,0.01,,---,0.01,0.00,VWS V14.01,2013-04-05 11:08:00,
2013-04-05 06:09:00,41.2,39.3,30.23,NW,319,0.0,2.0,93,0.01,,---,0.01,0.00,VWS V14.01,2013-04-05 11:09:00,
2013-04-05 06:10:00,41.2,39.3,30.23,NW,319,0.0,2.0,93,0.01,,---,0.01,0.00,VWS V14.01,2013-04-05 11:10:00,
2013-04-05 06:13:00,41.3,39.4,30.23,NW,319,0.0,2.0,93,0.01,,---,0.01,0.00,VWS V14.01,2013-04-05 11:13:00,
2013-04-05 06:14:00,41.3,39.4,30.23,NW,319,0.0,2.0,93,0.01,,---,0.01,0.00,VWS V14.01,2013-04-05 11:14:00,
2013-04-05 06:15:00,41.2,39.3,30.23,NW,319,0.0,2.0,93,0.01,,---,0.01,0.00,VWS V14.01,2013-04-05 11:15:00,
2013-04-05 06:19:00,41.2,39.3,30.23,NW,319,0.0,2.0,93,0.01,,---,0.01,0.00,VWS V14.01,2013-04-05 11:19:00,
2013-04-05 06:20:00,41.2,39.3,30.23,NW,319,0.0,2.0,93,0.01,,---,0.01,0.00,VWS V14.01,2013-04-05 11:20:00,
2013-04-05 06:22:00,41.2,39.3,30.23,NW,319,0.0,2.0,93,0.01,,---,0.01,0.00,VWS V14.01,2013-04-05 11:22:00,
2013-04-05 06:24:00,41.2,39.3,30.23,NW,319,0.0,2.0,93,0.01,,---,0.01,0.00,VWS V14.01,2013-04-05 11:24:00,
2013-04-05 06:25:00,41.2,39.3,30.23,NW,319,0.0,2.0,93,0.01,,---,0.01,0.00,VWS V14.01,2013-04-05 11:25:00,
2013-04-05 06:27:00,41.2,39.3,30.23,NW,319,0.0,2.0,93,0.01,,---,0.01,0.00,VWS V14.01,2013-04-05 11:27:00,
2013-04-05 06:28:00,41.2,39.3,30.23,NW,319,0.0,2.0,93,0.01,,---,0.01,0.00,VWS V14.01,2013-04-05 11:28:00,
2013-04-05 06:29:00,41.2,39.3,30.24,NW,319,0.0,2.0,93,0.01,,---,0.01,0.00,VWS V14.01,2013-04-05 11:29:00,
2013-04-05 06:30:00,41.2,39.3,30.24,WNW,296,3.0,4.0,93,0.01,,---,0.01,0.00,VWS V14.01,2013-04-05 11:30:00,
2013-04-05 06:32:00,41.4,39.8,30.24,West,279,0.0,4.0,94,0.00,,---,0.01,0.00,VWS V14.01,2013-04-05 11:32:00,
2013-04-05 06:33:00,41.4,39.8,30.24,West,279,0.0,4.0,94,0.00,,---,0.01,0.00,VWS V14.01,2013-04-05 11:33:00,
2013-04-05 06:34:00,41.5,39.6,30.24,West,279,0.0,4.0,93,0.00,,---,0.01,0.00,VWS V14.01,2013-04-05 11:34:00,
2013-04-05 06:35:00,41.4,39.5,30.24,West,279,0.0,4.0,93,0.00,,---,0.01,0.00,VWS V14.01,2013-04-05 11:35:00,
2013-04-05 06:37:00,41.5,39.6,30.24,West,279,0.0,4.0,93,0.00,,---,0.01,0.00,VWS V14.01,2013-04-05 11:37:00,
2013-04-05 06:38:00,41.5,39.6,30.24,West,279,0.0,4.0,93,0.00,,---,0.01,0.00,VWS V14.01,2013-04-05 11:38:00,
2013-04-05 06:39:00,41.4,39.5,30.24,NNW,330,3.0,4.0,93,0.00,,---,0.01,0.00,VWS V14.01,2013-04-05 11:39:00,
2013-04-05 06:41:00,41.4,39.5,30.24,NNW,330,0.0,4.0,93,0.00,,---,0.01,0.00,VWS V14.01,2013-04-05 11:41:00,
2013-04-05 06:42:00,41.4,39.5,30.24,NNW,330,0.0,4.0,93,0.00,,---,0.01,0.00,VWS V14.01,2013-04-05 11:42:00,
2013-04-05 06:44:00,41.4,39.5,30.23,NNW,330,0.0,4.0,93,0.00,,---,0.01,0.00,VWS V14.01,2013-04-05 11:44:00,
2013-04-05 06:45:00,41.4,39.5,30.23,NNW,330,0.0,4.0,93,0.00,,---,0.01,0.00,VWS V14.01,2013-04-05 11:45:00,
2013-04-05 06:47:00,41.3,39.4,30.23,NNW,330,0.0,4.0,93,0.00,,---,0.01,0.00,VWS V14.01,2013-04-05 11:47:00,
2013-04-05 06:48:00,41.3,39.4,30.23,NNW,330,0.0,4.0,93,0.00,,---,0.01,0.00,VWS V14.01,2013-04-05 11:48:00,
2013-04-05 06:50:00,41.3,39.4,30.23,NNW,330,0.0,4.0,93,0.00,,---,0.01,0.00,VWS V14.01,2013-04-05 11:50:00,
2013-04-05 06:51:00,41.3,39.4,30.23,NNW,330,0.0,4.0,93,0.00,,---,0.01,0.00,VWS V14.01,2013-04-05 11:51:00,
2013-04-05 06:52:00,41.3,39.4,30.23,NNW,330,0.0,4.0,93,0.00,,---,0.01,0.00,VWS V14.01,2013-04-05 11:52:00,
2013-04-05 06:54:00,41.3,39.4,30.23,NNW,330,0.0,4.0,93,0.00,,---,0.01,0.00,VWS V14.01,2013-04-05 11:54:00,
2013-04-05 06:56:00,41.3,39.4,30.23,NNW,330,0.0,4.0,93,0.00,,---,0.01,0.00,VWS V14.01,2013-04-05 11:56:00,
2013-04-05 06:57:00,41.2,39.3,30.23,NNW,330,0.0,4.0,93,0.00,,---,0.01,0.00,VWS V14.01,2013-04-05 11:57:00,
2013-04-05 06:59:00,41.2,39.3,30.23,NNW,330,0.0,4.0,93,0.00,,---,0.01,0.00,VWS V14.01,2013-04-05 11:59:00,
2013-04-05 07:00:00,41.2,39.3,30.23,NNW,330,0.0,4.0,93,0.00,,---,0.01,0.00,VWS V14.01,2013-04-05 12:00:00,
2013-04-05 07:02:00,41.1,39.2,30.22,NNW,330,0.0,0.0,93,0.00,,---,0.01,0.00,VWS V14.01,2013-04-05 12:02:00,
2013-04-05 07:04:00,41.1,39.2,30.23,NNW,330,0.0,0.0,93,0.00,,---,0.01,0.00,VWS V14.01,2013-04-05 12:04:00,
2013-04-05 07:05:00,41.1,39.2,30.23,NNW,330,0.0,0.0,93,0.00,,---,0.01,0.00,VWS V14.01,2013-04-05 12:05:00,
2013-04-05 07:07:00,41.1,39.5,30.22,NNW,330,1.0,1.0,94,0.00,,---,0.01,5.00,VWS V14.01,2013-04-05 12:07:00,
2013-04-05 07:10:00,41.0,39.4,30.23,NNW,330,0.0,2.0,94,0.00,,---,0.01,7.00,VWS V14.01,2013-04-05 12:10:00,
2013-04-05 07:11:00,41.0,39.4,30.23,NNW,330,0.0,2.0,94,0.00,,---,0.01,7.00,VWS V14.01,2013-04-05 12:11:00,
2013-04-05 07:13:00,41.0,39.4,30.23,NNW,330,0.0,2.0,94,0.00,,---,0.01,9.00,VWS V14.01,2013-04-05 12:13:00,
2013-04-05 07:16:00,41.0,39.4,30.23,NNW,330,0.0,2.0,94,0.00,,---,0.01,11.00,VWS V14.01,2013-04-05 12:16:00,
2013-04-05 07:19:00,41.1,39.5,30.23,NNW,330,1.0,2.0,94,0.00,,---,0.01,12.00,VWS V14.01,2013-04-05 12:19:00,
2013-04-05 07:20:00,41.1,39.5,30.23,NNW,330,0.0,2.0,94,0.00,,---,0.01,12.00,VWS V14.01,2013-04-05 12:20:00,
2013-04-05 07:21:00,41.1,39.5,30.23,NNW,329,2.0,3.0,94,0.00,,---,0.01,14.00,VWS V14.01,2013-04-05 12:21:00,
2013-04-05 07:22:00,41.1,39.5,30.23,NNW,329,0.0,3.0,94,0.00,,---,0.01,14.00,VWS V14.01,2013-04-05 12:22:00,
2013-04-05 07:25:00,41.2,39.6,30.23,NNW,329,1.0,3.0,94,0.00,,---,0.01,16.00,VWS V14.01,2013-04-05 12:25:00,
2013-04-05 07:28:00,41.2,39.6,30.24,NNW,331,0.0,3.0,94,0.00,,---,0.01,18.00,VWS V14.01,2013-04-05 12:28:00,
2013-04-05 07:29:00,41.2,39.6,30.24,NNW,331,1.0,3.0,94,0.00,,---,0.01,18.00,VWS V14.01,2013-04-05 12:29:00,
2013-04-05 07:30:00,41.2,39.6,30.24,NNW,331,1.0,1.0,94,0.00,,---,0.01,18.00,VWS V14.01,2013-04-05 12:30:00,
2013-04-05 07:31:00,41.3,39.7,30.24,NNW,331,1.0,2.0,94,0.00,,---,0.01,19.00,VWS V14.01,2013-04-05 12:31:00,
2013-04-05 07:33:00,41.3,39.7,30.24,NNW,331,0.0,2.0,94,0.00,,---,0.01,19.00,VWS V14.01,2013-04-05 12:33:00,
2013-04-05 07:35:00,41.4,39.8,30.24,NNW,331,0.0,2.0,94,0.00,,---,0.01,21.00,VWS V14.01,2013-04-05 12:35:00,
2013-04-05 07:36:00,41.4,39.8,30.24,NNW,331,1.0,2.0,94,0.00,,---,0.01,21.00,VWS V14.01,2013-04-05 12:36:00,
2013-04-05 07:37:00,41.4,39.8,30.24,NNW,331,0.0,2.0,94,0.00,,---,0.01,21.00,VWS V14.01,2013-04-05 12:37:00,
2013-04-05 07:38:00,41.4,39.8,30.24,NNW,331,0.0,2.0,94,0.00,,---,0.01,21.00,VWS V14.01,2013-04-05 12:38:00,
2013-04-05 07:42:00,41.5,39.9,30.24,NNW,331,0.0,3.0,94,0.00,,---,0.01,23.00,VWS V14.01,2013-04-05 12:42:00,
2013-04-05 07:43:00,41.5,39.9,30.24,NNW,331,0.0,3.0,94,0.00,,---,0.01,25.00,VWS V14.01,2013-04-05 12:43:00,
2013-04-05 07:48:00,41.6,40.0,30.24,NNW,331,0.0,3.0,94,0.00,,---,0.01,26.00,VWS V14.01,2013-04-05 12:48:00,
2013-04-05 07:49:00,41.6,40.0,30.25,NNW,331,0.0,3.0,94,0.00,,---,0.01,26.00,VWS V14.01,2013-04-05 12:49:00,
2013-04-05 07:50:00,41.6,40.0,30.25,NNW,331,0.0,3.0,94,0.00,,---,0.01,26.00,VWS V14.01,2013-04-05 12:50:00,
2013-04-05 07:54:00,41.7,40.1,30.25,NNW,331,0.0,3.0,94,0.00,,---,0.01,28.00,VWS V14.01,2013-04-05 12:54:00,
2013-04-05 07:55:00,41.7,40.1,30.25,NNW,331,0.0,3.0,94,0.00,,---,0.01,28.00,VWS V14.01,2013-04-05 12:55:00,
2013-04-05 07:56:00,41.8,40.2,30.25,NNW,331,0.0,3.0,94,0.00,,---,0.01,28.00,VWS V14.01,2013-04-05 12:56:00,
2013-04-05 08:00:00,41.9,40.6,30.25,NNW,331,0.0,2.0,95,0.00,,---,0.01,33.00,VWS V14.01,2013-04-05 13:00:00,
2013-04-05 08:01:00,42.0,40.7,30.25,NNW,331,0.0,2.0,95,0.00,,---,0.01,40.00,VWS V14.01,2013-04-05 13:01:00,
2013-04-05 08:05:00,42.1,40.8,30.25,NNW,331,2.0,4.0,95,0.00,,---,0.01,33.00,VWS V14.01,2013-04-05 13:05:00,
2013-04-05 08:06:00,42.1,40.8,30.25,NNW,331,0.0,4.0,95,0.00,,---,0.01,33.00,VWS V14.01,2013-04-05 13:06:00,
2013-04-05 08:07:00,42.1,40.8,30.25,NNW,331,0.0,4.0,95,0.00,,---,0.01,33.00,VWS V14.01,2013-04-05 13:07:00,
2013-04-05 08:10:00,42.2,40.9,30.26,NW,325,3.0,4.0,95,0.00,,---,0.01,33.00,VWS V14.01,2013-04-05 13:10:00,
2013-04-05 08:12:00,42.3,41.0,30.26,NW,326,2.0,4.0,95,0.00,,---,0.01,33.00,VWS V14.01,2013-04-05 13:12:00,
2013-04-05 08:13:00,42.3,41.0,30.26,NW,326,0.0,4.0,95,0.00,,---,0.01,33.00,VWS V14.01,2013-04-05 13:13:00,
2013-04-05 08:17:00,42.5,41.2,30.26,NW,321,1.0,4.0,95,0.00,,---,0.01,35.00,VWS V14.01,2013-04-05 13:17:00,
2013-04-05 08:18:00,42.6,41.3,30.26,NW,321,2.0,4.0,95,0.00,,---,0.01,37.00,VWS V14.01,2013-04-05 13:18:00,
2013-04-05 08:23:00,42.8,41.5,30.26,NW,321,1.0,4.0,95,0.00,,---,0.01,72.00,VWS V14.01,2013-04-05 13:23:00,
2013-04-05 08:24:00,42.9,41.6,30.26,NNW,327,1.0,4.0,95,0.00,,---,0.01,67.00,VWS V14.01,2013-04-05 13:24:00,
2013-04-05 08:25:00,42.9,41.6,30.26,NNW,327,0.0,4.0,95,0.00,,---,0.01,49.00,VWS V14.01,2013-04-05 13:25:00,
2013-04-05 08:28:00,43.1,41.8,30.26,NNW,327,0.0,4.0,95,0.00,,---,0.01,58.00,VWS V14.01,2013-04-05 13:28:00,
2013-04-05 08:29:00,43.2,41.9,30.26,NNW,327,0.0,4.0,95,0.00,,---,0.01,58.00,VWS V14.01,2013-04-05 13:29:00,
2013-04-05 08:30:00,43.2,41.9,30.26,NNW,327,0.0,4.0,95,0.00,,---,0.01,58.00,VWS V14.01,2013-04-05 13:30:00,
2013-04-05 08:31:00,43.3,42.0,30.26,NW,315,0.0,3.0,95,0.00,,---,0.01,83.00,VWS V14.01,2013-04-05 13:31:00,
2013-04-05 08:33:00,43.6,42.3,30.26,WNW,300,3.0,6.0,95,0.00,,---,0.01,91.00,VWS V14.01,2013-04-05 13:33:00,
2013-04-05 08:34:00,43.7,42.4,30.26,NW,319,1.0,6.0,95,0.00,,---,0.01,84.00,VWS V14.01,2013-04-05 13:34:00,
2013-04-05 08:36:00,44.0,42.7,30.26,NW,321,0.0,6.0,95,0.00,,---,0.01,76.00,VWS V14.01,2013-04-05 13:36:00,
2013-04-05 08:38:00,44.2,42.9,30.26,NNW,339,1.0,6.0,95,0.00,,---,0.01,51.00,VWS V14.01,2013-04-05 13:38:00,
2013-04-05 08:39:00,44.2,42.9,30.26,NNW,336,2.0,6.0,95,0.00,,---,0.01,40.00,VWS V14.01,2013-04-05 13:39:00,
2013-04-05 08:40:00,44.3,43.0,30.26,North,355,3.0,6.0,95,0.00,,---,0.01,40.00,VWS V14.01,2013-04-05 13:40:00,
2013-04-05 08:44:00,44.6,43.3,30.26,NNW,348,3.0,6.0,95,0.00,,---,0.01,40.00,VWS V14.01,2013-04-05 13:44:00,
2013-04-05 08:45:00,44.7,43.4,30.26,NW,315,2.0,6.0,95,0.00,,---,0.01,40.00,VWS V14.01,2013-04-05 13:45:00,
2013-04-05 08:46:00,44.8,43.5,30.26,NNW,336,1.0,6.0,95,0.00,,---,0.01,58.00,VWS V14.01,2013-04-05 13:46:00,
2013-04-05 08:49:00,45.1,43.8,30.27,NW,324,2.0,6.0,95,0.00,,---,0.01,100.00,VWS V14.01,2013-04-05 13:49:00,
2013-04-05 08:50:00,45.2,43.9,30.27,NW,324,3.0,6.0,95,0.00,,---,0.01,88.00,VWS V14.01,2013-04-05 13:50:00,
2013-04-05 08:51:00,45.2,43.9,30.27,NNW,327,0.0,6.0,95,0.00,,---,0.01,88.00,VWS V14.01,2013-04-05 13:51:00,
2013-04-05 08:55:00,45.6,44.2,30.27,NNW,333,1.0,6.0,95,0.00,,---,0.01,132.00,VWS V14.01,2013-04-05 13:55:00,
2013-04-05 08:56:00,45.7,44.3,30.27,NNW,333,1.0,6.0,95,0.00,,---,0.01,186.00,VWS V14.01,2013-04-05 13:56:00,
2013-04-05 08:57:00,45.8,44.5,30.27,NNW,332,0.0,6.0,95,0.00,,---,0.01,230.00,VWS V14.01,2013-04-05 13:57:00,
2013-04-05 08:58:00,45.9,44.5,30.27,NNW,332,0.0,6.0,95,0.00,,---,0.01,244.00,VWS V14.01,2013-04-05 13:58:00,
2013-04-05 09:00:00,46.0,44.9,30.27,NW,323,2.0,6.0,96,0.00,,---,0.01,246.00,VWS V14.01,2013-04-05 14:00:00,
2013-04-05 09:01:00,46.3,45.0,30.27,North,349,1.0,4.0,95,0.00,,---,0.01,306.00,VWS V14.01,2013-04-05 14:01:00,
2013-04-05 09:03:00,46.4,45.0,30.27,NNW,348,3.0,4.0,95,0.00,,---,0.01,299.00,VWS V14.01,2013-04-05 14:03:00,
2013-04-05 09:04:00,46.5,45.2,30.27,NW,321,0.0,4.0,95,0.00,,---,0.01,290.00,VWS V14.01,2013-04-05 14:04:00,
2013-04-05 09:07:00,46.9,45.5,30.27,WNW,296,1.0,4.0,95,0.00,,---,0.01,396.00,VWS V14.01,2013-04-05 14:07:00,
2013-04-05 09:08:00,47.1,45.7,30.27,WNW,292,0.0,4.0,95,0.00,,---,0.01,404.00,VWS V14.01,2013-04-05 14:08:00,
2013-04-05 09:09:00,47.2,45.8,30.27,WNW,292,1.0,4.0,95,0.00,,---,0.01,406.00,VWS V14.01,2013-04-05 14:09:00,
2013-04-05 09:14:00,47.9,46.5,30.27,NW,323,1.0,4.0,95,0.00,,---,0.01,434.00,VWS V14.01,2013-04-05 14:14:00,
2013-04-05 09:15:00,47.9,46.5,30.27,NW,323,2.0,4.0,95,0.00,,---,0.01,441.00,VWS V14.01,2013-04-05 14:15:00,
2013-04-05 09:20:00,48.6,47.2,30.27,NW,311,0.0,4.0,95,0.00,,---,0.01,462.00,VWS V14.01,2013-04-05 14:20:00,
2013-04-05 09:24:00,49.2,47.8,30.28,NW,311,1.0,4.0,95,0.00,,---,0.01,408.00,VWS V14.01,2013-04-05 14:24:00,
2013-04-05 09:25:00,49.4,48.0,30.28,NW,311,1.0,4.0,95,0.00,,---,0.01,308.00,VWS V14.01,2013-04-05 14:25:00,
2013-04-05 09:28:00,49.7,48.0,30.28,NW,325,2.0,4.0,94,0.00,,---,0.01,304.00,VWS V14.01,2013-04-05 14:28:00,
2013-04-05 09:30:00,50.0,48.6,30.28,NW,325,1.0,1.0,95,0.00,,---,0.01,336.00,VWS V14.01,2013-04-05 14:30:00,
2013-04-05 09:33:00,50.6,48.9,30.28,NNW,330,2.0,4.0,94,0.00,,---,0.01,513.00,VWS V14.01,2013-04-05 14:33:00,
2013-04-05 09:34:00,50.7,49.0,30.28,West,274,3.0,4.0,94,0.00,,---,0.01,513.00,VWS V14.01,2013-04-05 14:34:00,
2013-04-05 09:35:00,50.8,49.1,30.28,WNW,285,1.0,4.0,94,0.00,,---,0.01,501.00,VWS V14.01,2013-04-05 14:35:00,
2013-04-05 09:39:00,51.4,49.2,30.28,NW,304,2.0,4.0,92,0.00,,---,0.01,540.00,VWS V14.01,2013-04-05 14:39:00,
2013-04-05 09:40:00,51.5,49.3,30.28,NW,304,1.0,4.0,92,0.00,,---,0.01,540.00,VWS V14.01,2013-04-05 14:40:00,
2013-04-05 09:41:00,51.6,49.4,30.28,NW,304,0.0,4.0,92,0.00,,---,0.01,541.00,VWS V14.01,2013-04-05 14:41:00,
2013-04-05 09:45:00,52.4,49.6,30.28,WNW,292,3.0,6.0,90,0.00,,---,0.01,557.00,VWS V14.01,2013-04-05 14:45:00,
2013-04-05 09:46:00,52.4,49.6,30.28,WNW,298,3.0,6.0,90,0.00,,---,0.01,561.00,VWS V14.01,2013-04-05 14:46:00,
2013-04-05 09:47:00,52.7,49.5,30.28,NNW,328,0.0,6.0,89,0.00,,---,0.01,568.00,VWS V14.01,2013-04-05 14:47:00,
2013-04-05 09:48:00,52.8,49.7,30.28,NNW,333,2.0,6.0,89,0.00,,---,0.01,570.00,VWS V14.01,2013-04-05 14:48:00,
2013-04-05 09:50:00,53.2,49.4,30.28,NW,320,1.0,6.0,87,0.00,,---,0.01,577.00,VWS V14.01,2013-04-05 14:50:00,
2013-04-05 09:53:00,53.5,49.4,30.28,NNE,30,2.0,6.0,86,0.00,,---,0.01,585.00,VWS V14.01,2013-04-05 14:53:00,
2013-04-05 09:58:00,54.3,48.9,30.28,NNW,328,4.0,6.0,82,0.00,,---,0.01,603.00,VWS V14.01,2013-04-05 14:58:00,
2013-04-05 09:59:00,54.5,48.8,30.28,NW,323,4.0,7.0,81,0.00,,---,0.01,605.00,VWS V14.01,2013-04-05 14:59:00,
2013-04-05 10:00:00,54.6,48.6,30.28,West,263,4.0,4.0,80,0.00,,---,0.01,608.00,VWS V14.01,2013-04-05 15:00:00,
2013-04-05 10:03:00,54.9,47.8,30.28,WNW,300,0.0,7.0,77,0.00,,---,0.01,621.00,VWS V14.01,2013-04-05 15:03:00,
2013-04-05 10:04:00,55.0,47.9,30.28,WNW,292,0.0,7.0,77,0.00,,---,0.01,622.00,VWS V14.01,2013-04-05 15:04:00,
2013-04-05 10:05:00,55.1,48.0,30.28,WNW,292,0.0,7.0,77,0.00,,---,0.01,622.00,VWS V14.01,2013-04-05 15:05:00,
2013-04-05 10:10:00,55.7,48.3,30.28,NNE,32,0.0,7.0,76,0.00,,---,0.01,643.00,VWS V14.01,2013-04-05 15:10:00,
2013-04-05 10:12:00,56.0,48.5,30.28,WNW,292,0.0,7.0,76,0.00,,---,0.01,647.00,VWS V14.01,2013-04-05 15:12:00,
2013-04-05 10:13:00,56.2,48.8,30.28,NNE,28,3.0,7.0,76,0.00,,---,0.01,652.00,VWS V14.01,2013-04-05 15:13:00,
2013-04-05 10:17:00,56.9,48.7,30.28,NNW,338,0.0,7.0,74,0.00,,---,0.01,670.00,VWS V14.01,2013-04-05 15:17:00,
2013-04-05 10:18:00,57.1,48.9,30.28,NNW,338,0.0,7.0,74,0.00,,---,0.01,670.00,VWS V14.01,2013-04-05 15:18:00,
2013-04-05 10:23:00,57.9,48.9,30.28,NW,310,1.0,7.0,72,0.00,,---,0.01,684.00,VWS V14.01,2013-04-05 15:23:00,
2013-04-05 10:24:00,58.1,49.1,30.28,NNW,348,5.0,7.0,72,0.00,,---,0.01,694.00,VWS V14.01,2013-04-05 15:24:00,
2013-04-05 10:26:00,58.3,48.2,30.28,North,355,2.0,7.0,69,0.00,,---,0.01,694.00,VWS V14.01,2013-04-05 15:26:00,
2013-04-05 10:30:00,58.8,48.7,30.28,NNE,24,0.0,0.0,69,0.00,,---,0.01,705.00,VWS V14.01,2013-04-05 15:30:00,
2013-04-05 10:31:00,58.9,48.8,30.28,NNE,24,3.0,3.0,69,0.00,,---,0.01,705.00,VWS V14.01,2013-04-05 15:31:00,
2013-04-05 10:32:00,59.2,49.0,30.28,North,360,3.0,4.0,69,0.00,,---,0.01,712.00,VWS V14.01,2013-04-05 15:32:00,
2013-04-05 10:36:00,59.8,48.8,30.27,NE,51,0.0,4.0,67,0.00,,---,0.01,724.00,VWS V14.01,2013-04-05 15:36:00,
2013-04-05 10:38:00,60.1,48.7,30.27,ENE,74,3.0,4.0,66,0.00,,---,0.01,715.00,VWS V14.01,2013-04-05 15:38:00,
2013-04-05 10:41:00,60.6,48.8,30.27,NNE,19,1.0,7.0,65,0.00,,---,0.01,742.00,VWS V14.01,2013-04-05 15:41:00,
2013-04-05 10:42:00,60.7,48.5,30.27,NNE,19,1.0,7.0,64,0.00,,---,0.01,742.00,VWS V14.01,2013-04-05 15:42:00,
2013-04-05 10:45:00,61.1,48.0,30.27,NW,325,3.0,7.0,62,0.00,,---,0.01,751.00,VWS V14.01,2013-04-05 15:45:00,
2013-04-05 10:47:00,61.2,48.1,30.27,North,360,2.0,7.0,62,0.00,,---,0.01,729.00,VWS V14.01,2013-04-05 15:47:00,
2013-04-05 10:49:00,61.2,47.2,30.27,WNW,290,4.0,7.0,60,0.00,,---,0.01,763.00,VWS V14.01,2013-04-05 15:49:00,
2013-04-05 10:50:00,61.3,47.8,30.27,North,350,4.0,7.0,61,0.00,,---,0.01,765.00,VWS V14.01,2013-04-05 15:50:00,
2013-04-05 10:54:00,61.7,47.7,30.28,NE,51,0.0,7.0,60,0.00,,---,0.01,777.00,VWS V14.01,2013-04-05 15:54:00,
2013-04-05 10:56:00,61.8,47.3,30.28,NE,40,4.0,7.0,59,0.00,,---,0.01,779.00,VWS V14.01,2013-04-05 15:56:00,
2013-04-05 10:57:00,62.0,47.5,30.28,North,360,2.0,7.0,59,0.00,,---,0.01,780.00,VWS V14.01,2013-04-05 15:57:00,
2013-04-05 10:59:00,62.2,48.2,30.28,SSE,158,2.0,7.0,60,0.00,,---,0.01,789.00,VWS V14.01,2013-04-05 15:59:00,
2013-04-05 11:00:00,62.2,48.2,30.27,SSE,158,2.0,7.0,60,0.00,,---,0.01,789.00,VWS V14.01,2013-04-05 16:00:00,
2013-04-05 11:01:00,62.4,48.3,30.27,NW,304,4.0,4.0,60,0.00,,---,0.01,793.00,VWS V14.01,2013-04-05 16:01:00,
2013-04-05 11:03:00,62.5,48.0,30.27,North,9,0.0,4.0,59,0.00,,---,0.01,798.00,VWS V14.01,2013-04-05 16:03:00,
2013-04-05 11:05:00,62.7,48.2,30.27,SSE,147,0.0,4.0,59,0.00,,---,0.01,802.00,VWS V14.01,2013-04-05 16:05:00,
2013-04-05 11:09:00,63.1,48.1,30.27,WNW,300,2.0,4.0,58,0.00,,---,0.01,810.00,VWS V14.01,2013-04-05 16:09:00,
2013-04-05 11:10:00,63.2,48.2,30.27,NW,311,1.0,4.0,58,0.00,,---,0.01,810.00,VWS V14.01,2013-04-05 16:10:00,
2013-04-05 11:11:00,63.3,48.3,30.27,North,349,4.0,4.0,58,0.00,,---,0.01,810.00,VWS V14.01,2013-04-05 16:11:00,
2013-04-05 11:15:00,63.7,48.2,30.27,NNE,27,1.0,4.0,57,0.00,,---,0.01,821.00,VWS V14.01,2013-04-05 16:15:00,
2013-04-05 11:16:00,63.8,47.8,30.27,NE,35,2.0,4.0,56,0.00,,---,0.01,826.00,VWS V14.01,2013-04-05 16:16:00,
2013-04-05 11:18:00,64.0,48.5,30.27,NE,36,2.0,4.0,57,0.00,,---,0.01,833.00,VWS V14.01,2013-04-05 16:18:00,
2013-04-05 11:20:00,64.3,47.8,30.27,WNW,301,2.0,4.0,55,0.00,,---,0.01,837.00,VWS V14.01,2013-04-05 16:20:00,
2013-04-05 11:22:00,64.5,48.0,30.26,NNW,330,5.0,5.0,55,0.00,,---,0.01,830.00,VWS V14.01,2013-04-05 16:22:00,
2013-04-05 11:24:00,64.6,47.1,30.26,NNE,22,3.0,5.0,53,0.00,,---,0.01,840.00,VWS V14.01,2013-04-05 16:24:00,
2013-04-05 11:27:00,64.8,47.8,30.26,NE,53,1.0,5.0,54,0.00,,---,0.01,849.00,VWS V14.01,2013-04-05 16:27:00,
2013-04-05 11:28:00,64.9,48.4,30.26,NE,44,4.0,5.0,55,0.00,,---,0.01,849.00,VWS V14.01,2013-04-05 16:28:00,
2013-04-05 11:30:00,65.0,48.0,30.26,NNE,30,1.0,2.0,54,0.00,,---,0.01,851.00,VWS V14.01,2013-04-05 16:30:00,
2013-04-05 11:32:00,65.1,47.6,30.26,South,180,0.0,4.0,53,0.00,,---,0.01,863.00,VWS V14.01,2013-04-05 16:32:00,
2013-04-05 11:33:00,65.1,47.6,30.26,West,273,1.0,4.0,53,0.00,,---,0.01,863.00,VWS V14.01,2013-04-05 16:33:00,
2013-04-05 11:36:00,65.2,47.2,30.26,North,5,3.0,4.0,52,0.00,,---,0.01,870.00,VWS V14.01,2013-04-05 16:36:00,
2013-04-05 11:37:00,65.2,47.2,30.26,NNW,344,2.0,4.0,52,0.00,,---,0.01,872.00,VWS V14.01,2013-04-05 16:37:00,
2013-04-05 11:38:00,65.3,47.2,30.26,ENE,67,2.0,4.0,52,0.00,,---,0.01,881.00,VWS V14.01,2013-04-05 16:38:00,
2013-04-05 11:40:00,65.3,47.2,30.26,ENE,71,0.0,4.0,52,0.00,,---,0.01,879.00,VWS V14.01,2013-04-05 16:40:00,
2013-04-05 11:43:00,65.6,48.0,30.26,NE,37,0.0,4.0,53,0.00,,---,0.01,888.00,VWS V14.01,2013-04-05 16:43:00,
2013-04-05 11:44:00,65.7,48.1,30.26,NNW,348,2.0,4.0,53,0.00,,---,0.01,886.00,VWS V14.01,2013-04-05 16:44:00,
2013-04-05 11:45:00,65.8,47.7,30.26,NNE,24,1.0,4.0,52,0.00,,---,0.01,886.00,VWS V14.01,2013-04-05 16:45:00,
2013-04-05 11:50:00,66.4,47.7,30.26,NNE,15,0.0,5.0,51,0.00,,---,0.01,893.00,VWS V14.01,2013-04-05 16:50:00,
2013-04-05 11:51:00,66.6,47.9,30.26,WNW,302,3.0,5.0,51,0.00,,---,0.01,895.00,VWS V14.01,2013-04-05 16:51:00,
2013-04-05 11:55:00,67.0,47.2,30.26,NW,326,1.0,5.0,49,0.00,,---,0.01,904.00,VWS V14.01,2013-04-05 16:55:00,
2013-04-05 11:57:00,67.0,47.2,30.26,NW,326,0.0,5.0,49,0.00,,---,0.01,907.00,VWS V14.01,2013-04-05 16:57:00,
2013-04-05 11:58:00,67.1,47.3,30.26,NNE,19,4.0,5.0,49,0.00,,---,0.01,909.00,VWS V14.01,2013-04-05 16:58:00,
2013-04-05 12:00:00,67.2,46.9,30.26,NNE,30,1.0,2.0,48,0.00,,---,0.01,918.00,VWS V14.01,2013-04-05 17:00:00,
2013-04-05 12:04:00,67.6,47.8,30.26,East,94,2.0,7.0,49,0.00,,---,0.01,918.00,VWS V14.01,2013-04-05 17:04:00,
2013-04-05 12:05:00,67.6,47.2,30.26,NNE,12,1.0,7.0,48,0.00,,---,0.01,921.00,VWS V14.01,2013-04-05 17:05:00,
2013-04-05 12:06:00,67.7,47.3,30.26,NNW,327,2.0,7.0,48,0.00,,---,0.01,921.00,VWS V14.01,2013-04-05 17:06:00,
2013-04-05 12:11:00,67.7,47.9,30.26,NNW,341,1.0,7.0,49,0.00,,---,0.01,930.00,VWS V14.01,2013-04-05 17:11:00,
2013-04-05 12:12:00,67.7,48.4,30.26,NNW,348,3.0,7.0,50,0.00,,---,0.01,930.00,VWS V14.01,2013-04-05 17:12:00,
2013-04-05 12:13:00,67.8,47.4,30.26,NNW,340,3.0,7.0,48,0.00,,---,0.01,930.00,VWS V14.01,2013-04-05 17:13:00,
2013-04-05 12:17:00,68.0,46.5,30.26,North,360,0.0,7.0,46,0.00,,---,0.01,939.00,VWS V14.01,2013-04-05 17:17:00,
2013-04-05 12:18:00,68.1,47.1,30.26,North,360,0.0,7.0,47,0.00,,---,0.01,937.00,VWS V14.01,2013-04-05 17:18:00,
2013-04-05 12:19:00,68.2,47.2,30.26,North,360,0.0,7.0,47,0.00,,---,0.01,942.00,VWS V14.01,2013-04-05 17:19:00,
2013-04-05 12:20:00,68.3,47.3,30.26,North,360,0.0,7.0,47,0.00,,---,0.01,944.00,VWS V14.01,2013-04-05 17:20:00,
2013-04-05 12:22:00,68.5,49.2,30.26,NNW,328,3.0,7.0,50,0.00,,---,0.01,946.00,VWS V14.01,2013-04-05 17:22:00,
2013-04-05 12:24:00,68.6,47.6,30.25,NNW,328,3.0,7.0,47,0.00,,---,0.01,947.00,VWS V14.01,2013-04-05 17:24:00,
2013-04-05 12:26:00,68.7,46.5,30.25,NNW,328,0.0,7.0,45,0.00,,---,0.01,949.00,VWS V14.01,2013-04-05 17:26:00,
2013-04-05 12:28:00,68.8,47.8,30.25,NNW,333,0.0,7.0,47,0.00,,---,0.01,947.00,VWS V14.01,2013-04-05 17:28:00,
2013-04-05 12:29:00,69.0,48.0,30.25,NNW,333,1.0,7.0,47,0.00,,---,0.01,953.00,VWS V14.01,2013-04-05 17:29:00,
2013-04-05 12:30:00,69.0,48.0,30.25,NNW,333,0.0,7.0,47,0.00,,---,0.01,953.00,VWS V14.01,2013-04-05 17:30:00,
2013-04-05 12:32:00,69.5,50.6,30.25,NE,55,2.0,3.0,51,0.00,,---,0.01,956.00,VWS V14.01,2013-04-05 17:32:00,
2013-04-05 12:34:00,69.5,47.8,30.25,NNW,331,4.0,5.0,46,0.00,,---,0.01,958.00,VWS V14.01,2013-04-05 17:34:00,
2013-04-05 12:35:00,69.3,47.1,30.25,North,350,2.0,6.0,45,0.00,,---,0.01,956.00,VWS V14.01,2013-04-05 17:35:00,
2013-04-05 12:38:00,69.2,47.6,30.25,NNE,16,5.0,6.0,46,0.00,,---,0.01,958.00,VWS V14.01,2013-04-05 17:38:00,
2013-04-05 12:40:00,69.3,47.1,30.25,NNW,341,1.0,7.0,45,0.00,,---,0.01,956.00,VWS V14.01,2013-04-05 17:40:00,
2013-04-05 12:43:00,69.2,47.6,30.24,WNW,298,2.0,7.0,46,0.00,,---,0.01,960.00,VWS V14.01,2013-04-05 17:43:00,
2013-04-05 12:44:00,69.1,47.5,30.24,WNW,298,1.0,7.0,46,0.00,,---,0.01,963.00,VWS V14.01,2013-04-05 17:44:00,
2013-04-05 12:45:00,69.0,46.8,30.24,WNW,297,3.0,7.0,45,0.00,,---,0.01,967.00,VWS V14.01,2013-04-05 17:45:00,
2013-04-05 12:46:00,69.0,46.8,30.24,West,268,3.0,7.0,45,0.00,,---,0.01,967.00,VWS V14.01,2013-04-05 17:46:00,
2013-04-05 12:49:00,68.6,47.0,30.24,WNW,302,2.0,7.0,46,0.00,,---,0.01,963.00,VWS V14.01,2013-04-05 17:49:00,
2013-04-05 12:50:00,68.6,47.6,30.24,WNW,294,2.0,7.0,47,0.00,,---,0.01,963.00,VWS V14.01,2013-04-05 17:50:00,
2013-04-05 12:51:00,68.6,47.6,30.24,NW,304,3.0,7.0,47,0.00,,---,0.01,963.00,VWS V14.01,2013-04-05 17:51:00,
2013-04-05 12:53:00,68.5,47.5,30.24,West,263,3.0,7.0,47,0.00,,---,0.01,963.00,VWS V14.01,2013-04-05 17:53:00,
2013-04-05 12:54:00,68.3,46.7,30.24,West,271,1.0,7.0,46,0.00,,---,0.01,967.00,VWS V14.01,2013-04-05 17:54:00,
2013-04-05 12:55:00,68.2,47.2,30.24,WNW,286,4.0,7.0,47,0.00,,---,0.01,965.00,VWS V14.01,2013-04-05 17:55:00,
2013-04-05 12:58:00,68.3,48.4,30.24,NW,324,2.0,7.0,49,0.00,,---,0.01,965.00,VWS V14.01,2013-04-05 17:58:00,
2013-04-05 13:00:00,68.6,48.7,30.23,NW,324,2.0,5.0,49,0.00,,---,0.01,967.00,VWS V14.01,2013-04-05 18:00:00,
2013-04-05 13:01:00,68.7,48.2,30.23,WNW,283,5.0,5.0,48,0.00,,---,0.01,967.00,VWS V14.01,2013-04-05 18:01:00,
2013-04-05 13:04:00,69.1,48.0,30.23,NW,325,1.0,6.0,47,0.00,,---,0.01,969.00,VWS V14.01,2013-04-05 18:04:00,
2013-04-05 13:06:00,69.2,48.1,30.24,NNE,24,3.0,6.0,47,0.00,,---,0.01,967.00,VWS V14.01,2013-04-05 18:06:00,
2013-04-05 13:08:00,69.4,47.7,30.23,NNE,23,2.0,6.0,46,0.00,,---,0.01,969.00,VWS V14.01,2013-04-05 18:08:00,
2013-04-05 13:10:00,69.6,47.9,30.23,WNW,302,3.0,6.0,46,0.00,,---,0.01,967.00,VWS V14.01,2013-04-05 18:10:00,
2013-04-05 13:11:00,69.9,49.9,30.23,WNW,296,4.0,6.0,49,0.00,,---,0.01,969.00,VWS V14.01,2013-04-05 18:11:00,
2013-04-05 13:14:00,70.3,48.0,30.23,WNW,293,3.0,6.0,45,0.00,,---,0.01,967.00,VWS V14.01,2013-04-05 18:14:00,
2013-04-05 13:15:00,70.3,48.6,30.23,WSW,244,2.0,6.0,46,0.00,,---,0.01,970.00,VWS V14.01,2013-04-05 18:15:00,
2013-04-05 13:16:00,70.4,49.2,30.23,NNW,333,4.0,6.0,47,0.00,,---,0.01,969.00,VWS V14.01,2013-04-05 18:16:00,
2013-04-05 13:17:00,70.5,47.6,30.23,WNW,300,0.0,6.0,44,0.00,,---,0.01,972.00,VWS V14.01,2013-04-05 18:17:00,
2013-04-05 13:20:00,70.6,48.2,30.23,NNW,327,0.0,6.0,45,0.00,,---,0.01,969.00,VWS V14.01,2013-04-05 18:20:00,
2013-04-05 13:21:00,70.7,48.9,30.22,NNW,327,0.0,6.0,46,0.00,,---,0.01,969.00,VWS V14.01,2013-04-05 18:21:00,
2013-04-05 13:23:00,70.8,47.8,30.22,SE,128,1.0,6.0,44,0.00,,---,0.01,970.00,VWS V14.01,2013-04-05 18:23:00,
2013-04-05 13:25:00,70.8,48.4,30.22,SSE,153,0.0,6.0,45,0.00,,---,0.01,969.00,VWS V14.01,2013-04-05 18:25:00,
2013-04-05 13:27:00,70.8,49.6,30.22,ESE,111,1.0,6.0,47,0.00,,---,0.01,969.00,VWS V14.01,2013-04-05 18:27:00,
2013-04-05 13:29:00,71.1,49.9,30.22,NNW,334,4.0,6.0,47,0.00,,---,0.01,963.00,VWS V14.01,2013-04-05 18:29:00,
2013-04-05 13:30:00,71.2,48.8,30.22,NNW,340,2.0,5.0,45,0.00,,---,0.01,963.00,VWS V14.01,2013-04-05 18:30:00,
2013-04-05 13:33:00,71.4,49.6,30.22,North,5,1.0,5.0,46,0.00,,---,0.01,963.00,VWS V14.01,2013-04-05 18:33:00,
2013-04-05 13:35:00,71.5,49.7,30.22,NE,43,2.0,5.0,46,0.00,,---,0.01,962.00,VWS V14.01,2013-04-05 18:35:00,
2013-04-05 13:36:00,71.6,48.6,30.22,NNE,20,2.0,5.0,44,0.00,,---,0.01,962.00,VWS V14.01,2013-04-05 18:36:00,
2013-04-05 13:40:00,71.9,48.8,30.21,SE,138,2.0,5.0,44,0.00,,---,0.01,960.00,VWS V14.01,2013-04-05 18:40:00,
2013-04-05 13:41:00,71.9,47.6,30.21,South,171,4.0,5.0,42,0.00,,---,0.01,962.00,VWS V14.01,2013-04-05 18:41:00,
2013-04-05 13:42:00,71.9,48.2,30.21,ESE,119,1.0,5.0,43,0.00,,---,0.01,962.00,VWS V14.01,2013-04-05 18:42:00,
2013-04-05 13:43:00,71.8,48.1,30.21,North,9,0.0,5.0,43,0.00,,---,0.01,958.00,VWS V14.01,2013-04-05 18:43:00,
2013-04-05 13:46:00,71.0,48.6,30.21,North,360,4.0,5.0,45,0.00,,---,0.01,954.00,VWS V14.01,2013-04-05 18:46:00,
2013-04-05 13:47:00,71.1,48.7,30.21,North,5,0.0,5.0,45,0.00,,---,0.01,956.00,VWS V14.01,2013-04-05 18:47:00,
2013-04-05 13:50:00,71.3,50.0,30.21,NW,321,0.0,5.0,47,0.00,,---,0.01,889.00,VWS V14.01,2013-04-05 18:50:00,
2013-04-05 13:51:00,72.0,49.5,30.21,SW,229,1.0,5.0,45,0.00,,---,0.01,816.00,VWS V14.01,2013-04-05 18:51:00,
2013-04-05 13:53:00,71.7,49.8,30.21,SSE,162,2.0,5.0,46,0.00,,---,0.01,816.00,VWS V14.01,2013-04-05 18:53:00,
2013-04-05 13:55:00,71.3,48.3,30.21,NW,322,3.0,5.0,44,0.00,,---,0.01,816.00,VWS V14.01,2013-04-05 18:55:00,
2013-04-05 13:57:00,71.5,48.5,30.20,North,360,2.0,5.0,44,0.00,,---,0.01,91.00,VWS V14.01,2013-04-05 18:57:00,
2013-04-05 14:00:00,71.6,47.3,30.20,West,279,2.0,3.0,42,0.00,,---,0.01,60.00,VWS V14.01,2013-04-05 19:00:00,
2013-04-05 14:01:00,70.9,47.3,30.20,NW,321,2.0,3.0,43,0.00,,---,0.01,58.00,VWS V14.01,2013-04-05 19:01:00,
2013-04-05 14:02:00,70.7,47.1,30.20,NW,321,2.0,3.0,43,0.00,,---,0.01,58.00,VWS V14.01,2013-04-05 19:02:00,
2013-04-05 14:03:00,70.3,46.8,30.20,NW,321,0.0,3.0,43,0.00,,---,0.01,58.00,VWS V14.01,2013-04-05 19:03:00,
2013-04-05 14:07:00,68.4,46.2,30.20,SSW,207,1.0,7.0,45,0.00,,---,0.01,58.00,VWS V14.01,2013-04-05 19:07:00,
2013-04-05 14:08:00,68.7,48.2,30.20,NNW,332,3.0,7.0,48,0.00,,---,0.01,58.00,VWS V14.01,2013-04-05 19:08:00,
2013-04-05 14:12:00,69.0,46.8,30.20,SSW,207,3.0,7.0,45,0.00,,---,0.01,58.00,VWS V14.01,2013-04-05 19:12:00,
2013-04-05 14:13:00,68.8,47.2,30.20,SSW,207,1.0,7.0,46,0.00,,---,0.01,58.00,VWS V14.01,2013-04-05 19:13:00,
2013-04-05 14:14:00,69.0,48.0,30.20,SSW,207,3.0,7.0,47,0.00,,---,0.01,58.00,VWS V14.01,2013-04-05 19:14:00,
2013-04-05 14:17:00,69.0,47.4,30.20,SW,223,0.0,7.0,46,0.00,,---,0.01,60.00,VWS V14.01,2013-04-05 19:17:00,
2013-04-05 14:18:00,69.6,49.1,30.20,SW,223,0.0,7.0,48,0.00,,---,0.01,62.00,VWS V14.01,2013-04-05 19:18:00,
2013-04-05 14:19:00,71.1,49.3,30.20,North,355,1.0,7.0,46,0.00,,---,0.01,69.00,VWS V14.01,2013-04-05 19:19:00,
2013-04-05 14:20:00,71.2,49.4,30.20,North,355,2.0,7.0,46,0.00,,---,0.01,77.00,VWS V14.01,2013-04-05 19:20:00,
2013-04-05 14:23:00,72.9,47.8,30.19,WNW,285,1.0,7.0,41,0.00,,---,0.01,120.00,VWS V14.01,2013-04-05 19:23:00,
2013-04-05 14:24:00,72.3,49.8,30.19,NE,43,1.0,7.0,45,0.00,,---,0.01,141.00,VWS V14.01,2013-04-05 19:24:00,
2013-04-05 14:25:00,72.4,49.9,30.19,NE,42,3.0,7.0,45,0.00,,---,0.01,141.00,VWS V14.01,2013-04-05 19:25:00,
2013-04-05 14:26:00,73.7,50.5,30.19,NE,48,1.0,7.0,44,0.00,,---,0.01,188.00,VWS V14.01,2013-04-05 19:26:00,
2013-04-05 14:29:00,75.8,51.1,30.19,NE,48,2.0,2.0,42,0.00,,---,0.01,450.00,VWS V14.01,2013-04-05 19:29:00,
2013-04-05 14:30:00,76.0,51.9,30.19,NE,48,0.0,3.0,43,0.00,,---,0.01,538.00,VWS V14.01,2013-04-05 19:30:00,
2013-04-05 14:33:00,76.0,50.6,30.19,East,96,3.0,3.0,41,0.00,,---,0.01,786.00,VWS V14.01,2013-04-05 19:33:00,
2013-04-05 14:35:00,74.8,47.5,30.19,East,98,0.0,3.0,38,0.00,,---,0.01,868.00,VWS V14.01,2013-04-05 19:35:00,
2013-04-05 14:36:00,73.8,47.3,30.19,East,98,0.0,3.0,39,0.00,,---,0.01,888.00,VWS V14.01,2013-04-05 19:36:00,
2013-04-05 14:38:00,71.2,45.7,30.18,South,174,0.0,3.0,40,0.00,,---,0.01,896.00,VWS V14.01,2013-04-05 19:38:00,
2013-04-05 14:42:00,71.6,49.2,30.18,NW,321,0.0,3.0,45,0.00,,---,0.01,884.00,VWS V14.01,2013-04-05 19:42:00,
2013-04-05 14:43:00,73.2,51.8,30.18,North,5,2.0,4.0,47,0.00,,---,0.01,884.00,VWS V14.01,2013-04-05 19:43:00,
2013-04-05 14:44:00,73.9,50.6,30.18,North,5,0.0,4.0,44,0.00,,---,0.01,888.00,VWS V14.01,2013-04-05 19:44:00,
2013-04-05 14:47:00,76.0,50.6,30.18,NNE,32,4.0,7.0,41,0.00,,---,0.01,877.00,VWS V14.01,2013-04-05 19:47:00,
2013-04-05 14:49:00,75.4,49.4,30.18,WSW,244,3.0,7.0,40,0.00,,---,0.01,847.00,VWS V14.01,2013-04-05 19:49:00,
2013-04-05 14:50:00,73.7,48.6,30.18,WSW,244,0.0,7.0,41,0.00,,---,0.01,819.00,VWS V14.01,2013-04-05 19:50:00,
2013-04-05 14:53:00,71.6,46.0,30.18,WSW,246,0.0,7.0,40,0.00,,---,0.01,779.00,VWS V14.01,2013-04-05 19:53:00,
2013-04-05 14:54:00,71.5,48.5,30.18,WSW,246,0.0,7.0,44,0.00,,---,0.01,737.00,VWS V14.01,2013-04-05 19:54:00,
2013-04-05 14:55:00,71.7,48.7,30.18,WSW,246,1.0,7.0,44,0.00,,---,0.01,715.00,VWS V14.01,2013-04-05 19:55:00,
2013-04-05 14:56:00,71.6,48.6,30.17,NNW,337,1.0,7.0,44,0.00,,---,0.01,656.00,VWS V14.01,2013-04-05 19:56:00,
2013-04-05 14:58:00,72.5,49.4,30.17,NNW,337,0.0,7.0,44,0.00,,---,0.01,626.00,VWS V14.01,2013-04-05 19:58:00,
2013-04-05 15:00:00,73.3,49.5,30.17,NE,49,2.0,7.0,43,0.00,,---,0.01,570.00,VWS V14.01,2013-04-05 20:00:00,
2013-04-05 15:01:00,74.5,52.4,30.17,NE,44,1.0,2.0,46,0.00,,---,0.01,543.00,VWS V14.01,2013-04-05 20:01:00,
2013-04-05 15:02:00,75.1,50.5,30.17,NE,44,1.0,2.0,42,0.00,,---,0.01,496.00,VWS V14.01,2013-04-05 20:02:00,
2013-04-05 15:03:00,75.1,49.2,30.17,West,271,4.0,6.0,40,0.00,,---,0.01,469.00,VWS V14.01,2013-04-05 20:03:00,
2013-04-05 15:06:00,73.3,48.2,30.17,North,350,0.0,6.0,41,0.00,,---,0.01,408.00,VWS V14.01,2013-04-05 20:06:00,
2013-04-05 15:07:00,74.1,50.8,30.17,NE,36,0.0,6.0,44,0.00,,---,0.01,401.00,VWS V14.01,2013-04-05 20:07:00,
2013-04-05 15:09:00,75.7,50.4,30.17,WNW,294,3.0,6.0,41,0.00,,---,0.01,403.00,VWS V14.01,2013-04-05 20:09:00,
2013-04-05 15:12:00,74.7,48.1,30.17,NNW,340,1.0,6.0,39,0.00,,---,0.01,432.00,VWS V14.01,2013-04-05 20:12:00,
2013-04-05 15:15:00,74.1,48.3,30.17,SSW,209,3.0,6.0,40,0.00,,---,0.01,520.00,VWS V14.01,2013-04-05 20:15:00,
2013-04-05 15:17:00,73.6,49.1,30.17,East,88,2.0,6.0,42,0.00,,---,0.01,577.00,VWS V14.01,2013-04-05 20:17:00,
2013-04-05 15:18:00,75.2,49.9,30.17,West,275,2.0,6.0,41,0.00,,---,0.01,622.00,VWS V14.01,2013-04-05 20:18:00,
2013-04-05 15:20:00,74.9,48.3,30.17,NW,313,0.0,6.0,39,0.00,,---,0.01,670.00,VWS V14.01,2013-04-05 20:20:00,
2013-04-05 15:22:00,75.0,50.4,30.17,NNW,341,3.0,6.0,42,0.00,,---,0.01,719.00,VWS V14.01,2013-04-05 20:22:00,
2013-04-05 15:25:00,74.7,47.4,30.16,NNW,329,0.0,6.0,38,0.00,,---,0.01,765.00,VWS V14.01,2013-04-05 20:25:00,
2013-04-05 15:26:00,74.3,47.1,30.16,NNW,329,0.0,6.0,38,0.00,,---,0.01,770.00,VWS V14.01,2013-04-05 20:26:00,
2013-04-05 15:28:00,73.8,48.0,30.16,WNW,282,2.0,6.0,40,0.00,,---,0.01,759.00,VWS V14.01,2013-04-05 20:28:00,
2013-04-05 15:30:00,72.7,47.0,30.16,WNW,292,1.0,6.0,40,0.00,,---,0.01,795.00,VWS V14.01,2013-04-05 20:30:00,
2013-04-05 15:31:00,73.8,48.0,30.16,WNW,295,1.0,1.0,40,0.00,,---,0.01,788.00,VWS V14.01,2013-04-05 20:31:00,
2013-04-05 15:32:00,74.0,48.2,30.16,WNW,295,0.0,1.0,40,0.00,,---,0.01,788.00,VWS V14.01,2013-04-05 20:32:00,
2013-04-05 15:34:00,74.6,48.7,30.16,NNW,346,3.0,5.0,40,0.00,,---,0.01,791.00,VWS V14.01,2013-04-05 20:34:00,
2013-04-05 15:35:00,75.9,51.8,30.16,NNW,347,1.0,5.0,43,0.00,,---,0.01,788.00,VWS V14.01,2013-04-05 20:35:00,
2013-04-05 15:38:00,77.3,51.1,30.16,NNE,19,2.0,5.0,40,0.00,,---,0.01,782.00,VWS V14.01,2013-04-05 20:38:00,
2013-04-05 16:00:00,75.6,50.3,30.14,NW,321,4.0,5.0,41,0.00,,---,0.01,694.00,VWS V14.01,2013-04-05 21:00:00,
2013-04-05 16:30:00,75.5,49.5,30.13,NNE,19,2.0,5.0,40,0.00,,---,0.01,647.00,VWS V14.01,2013-04-05 21:30:00,
2013-04-05 17:00:00,77.1,49.6,30.12,NE,36,3.0,7.0,38,0.00,,---,0.01,538.00,VWS V14.01,2013-04-05 22:00:00,
2013-04-05 17:30:00,74.8,48.9,30.11,East,84,0.0,3.0,40,0.00,,---,0.01,257.00,VWS V14.01,2013-04-05 22:30:00,
2013-04-05 18:00:00,71.6,47.9,30.11,East,90,0.0,3.0,43,0.00,,---,0.01,173.00,VWS V14.01,2013-04-05 23:00:00,
2013-04-05 18:30:00,70.7,50.6,30.11,East,90,0.0,2.0,49,0.00,,---,0.01,108.00,VWS V14.01,2013-04-05 23:30:00,
2013-04-05 19:00:00,67.1,55.4,30.11,East,90,0.0,0.0,66,0.00,,---,0.01,79.00,VWS V14.01,2013-04-06 00:00:00,
2013-04-05 19:30:00,62.4,55.1,30.12,East,90,0.0,0.0,77,0.00,,---,0.01,28.00,VWS V14.01,2013-04-06 00:30:00,
2013-04-05 20:00:00,59.2,54.0,30.12,East,90,0.0,0.0,83,0.00,,---,0.01,1.00,VWS V14.01,2013-04-06 01:00:00,
2013-04-05 20:30:00,57.2,53.1,30.13,East,90,0.0,0.0,86,0.00,,---,0.01,0.00,VWS V14.01,2013-04-06 01:30:00,
2013-04-05 21:00:00,55.1,51.9,30.13,ESE,112,0.0,1.0,89,0.00,,---,0.01,0.00,VWS V14.01,2013-04-06 02:00:00,
2013-04-05 21:30:00,53.5,50.9,30.14,ESE,112,0.0,0.0,91,0.00,,---,0.01,0.00,VWS V14.01,2013-04-06 02:30:00,
2013-04-05 22:00:00,52.2,50.0,30.15,ESE,112,0.0,0.0,92,0.00,,---,0.01,0.00,VWS V14.01,2013-04-06 03:00:00,
2013-04-05 22:30:00,51.3,49.3,30.15,ESE,112,0.0,0.0,93,0.00,,---,0.01,0.00,VWS V14.01,2013-04-06 03:30:00,
2013-04-05 23:30:00,49.9,48.0,30.15,ESE,112,0.0,0.0,93,0.01,,---,0.02,0.00,VWS V14.01,2013-04-06 04:30:00,